This is the latest recevied weather packets stored in our database for station/object K1BWE-1. If no packets are shown the sender has not sent any weather packets the latest 10 day(s).
| Time | Temp. | Humidity | Pressure | Rain* | Wind** | Luminosity | Snow |
|---|---|---|---|---|---|---|---|
| 1777987760 | 13.33° C | 97% | 1013.8 hPa | 0 mm | - | 31 W/m² | - |
| 1777987457 | 13.33° C | 97% | 1013.6 hPa | 0 mm | - | 28 W/m² | - |
| 1777987155 | 13.33° C | 97% | 1013.3 hPa | 0 mm | - | 28 W/m² | - |
| 1777986851 | 12.78° C | 97% | 1013.2 hPa | 0 mm | - | 29 W/m² | - |
| 1777986549 | 12.78° C | 97% | 1013.4 hPa | 0 mm | - | 25 W/m² | - |
| 1777986247 | 12.78° C | 97% | 1013.2 hPa | 0 mm | - | 18 W/m² | - |
| 1777985338 | 12.78° C | 97% | 1013.1 hPa | 0 mm | - | 7 W/m² | - |
| 1777984731 | 12.78° C | 97% | 1012.9 hPa | 0 mm | - | 0 W/m² | - |
| 1777984427 | 12.78° C | 97% | 1012.7 hPa | 0 mm | - | 0 W/m² | - |
| 1777984123 | 12.78° C | 97% | 1012.8 hPa | 0 mm | - | 0 W/m² | - |
| 1777983821 | 12.78° C | 97% | 1012.9 hPa | 0 mm | - | 0 W/m² | - |
| 1777983518 | 12.78° C | 97% | 1012.9 hPa | 0 mm | - | 0 W/m² | - |
| 1777983215 | 12.78° C | 97% | 1012.9 hPa | 0 mm | - | 0 W/m² | - |
| 1777982911 | 12.78° C | 97% | 1012.9 hPa | 0 mm | - | 0 W/m² | - |
| 1777982607 | 12.78° C | 97% | 1012.6 hPa | 0 mm | - | 0 W/m² | - |
| 1777982306 | 12.78° C | 97% | 1012.7 hPa | 0 mm | - | 0 W/m² | - |
| 1777982003 | 12.78° C | 97% | 1012.5 hPa | 0 mm | - | 0 W/m² | - |
| 1777981701 | 12.78° C | 97% | 1012.4 hPa | 1.27 mm | - | 0 W/m² | - |
| 1777981094 | 13.33° C | 97% | 1012.7 hPa | 0 mm | - | 0 W/m² | - |
| 1777980790 | 13.33° C | 97% | 1012.7 hPa | 0 mm | - | 0 W/m² | - |
| 1777980486 | 13.33° C | 97% | 1012.8 hPa | 0 mm | - | 0 W/m² | - |
| 1777980184 | 13.33° C | 97% | 1012.6 hPa | 0 mm | - | 0 W/m² | - |
| 1777979879 | 13.33° C | 97% | 1012.7 hPa | 0 mm | - | 0 W/m² | - |
| 1777978969 | 13.33° C | 97% | 1012.9 hPa | 0 mm | - | 0 W/m² | - |
| 1777978665 | 13.33° C | 97% | 1012.9 hPa | 1.27 mm | - | 0 W/m² | - |
* Rain latest hour (hover to see other rain measurements)
** Current wind speed in m/s (hover to see current wind gust speed)